This is the latest recevied weather packets stored in our database for station/object AE5HO. If no packets are shown the sender has not sent any weather packets the latest 10 day(s).
| Time | Temp. | Humidity | Pressure | Rain* | Wind** | Luminosity | Snow |
|---|---|---|---|---|---|---|---|
| 1787862534 | 37.22° C | 41% | 1015.2 hPa | 0 mm | - | 79 W/m² | - |
| 1787862229 | 36.67° C | 41% | 1015.2 hPa | 0 mm | - | 86 W/m² | - |
| 1787861925 | 36.11° C | 42% | 1015.4 hPa | 0 mm | - | 84 W/m² | - |
| 1787861624 | 36.67° C | 42% | 1015.3 hPa | 0 mm | - | 92 W/m² | - |
| 1787861322 | 36.67° C | 44% | 1015.2 hPa | 0 mm | - | 103 W/m² | - |
| 1787861018 | 36.67° C | 43% | 1015.1 hPa | 0 mm | - | 133 W/m² | - |
| 1787860717 | 36.67° C | 45% | 1015.2 hPa | 0 mm | - | 115 W/m² | - |
| 1787860412 | 36.11° C | 46% | 1015.4 hPa | 0 mm | - | 113 W/m² | - |
| 1787860112 | 36.11° C | 44% | 1015.2 hPa | 0 mm | - | 111 W/m² | - |
| 1787859807 | 36.11° C | 46% | 1015.5 hPa | 0 mm | - | 111 W/m² | - |
| 1787859507 | 36.11° C | 45% | 1015.3 hPa | 0 mm | - | 113 W/m² | - |
| 1787859202 | 36.67° C | 46% | 1015.7 hPa | 0 mm | - | 117 W/m² | - |
| 1787858899 | 36.67° C | 45% | 1015.4 hPa | 0 mm | - | 121 W/m² | - |
| 1787858594 | 36.67° C | 46% | 1015.4 hPa | 0 mm | - | 121 W/m² | - |
| 1787858294 | 36.11° C | 46% | 1015.6 hPa | 0 mm | - | 119 W/m² | - |
| 1787857989 | 36.67° C | 45% | 1015.6 hPa | 0 mm | - | 117 W/m² | - |
| 1787857685 | 36.11° C | 47% | 1015.3 hPa | 0 mm | - | 124 W/m² | - |
| 1787857381 | 36.67° C | 46% | 1015.7 hPa | 0 mm | - | 102 W/m² | - |
| 1787857078 | 36.67° C | 47% | 1015.6 hPa | 0 mm | - | 111 W/m² | - |
| 1787856773 | 37.22° C | 47% | 1015.8 hPa | 0 mm | - | 88 W/m² | - |
| 1787856467 | 36.67° C | 48% | 1015.8 hPa | 0 mm | - | 91 W/m² | - |
| 1787856164 | 36.67° C | 47% | 1016 hPa | 0 mm | - | 89 W/m² | - |
| 1787855859 | 36.67° C | 48% | 1016.1 hPa | 0 mm | - | 89 W/m² | - |
| 1787855559 | 36.11° C | 48% | 1016.4 hPa | 0 mm | - | 91 W/m² | - |
| 1787855254 | 36.11° C | 53% | 1016.4 hPa | 0 mm | - | 100 W/m² | - |
* Rain latest hour (hover to see other rain measurements)
** Current wind speed in m/s (hover to see current wind gust speed)